• en France
  • Liste des pays
  • À 7 jours
  • Température de l'eau
  • Carte satellitaire
  • Carte météo
  • Widgets météo
  • user-avatar
    Se connecter

    Météo par heure à Puerto-Inirida

    Ce jour, 25 Mai, Vendredi

    Heure Température Précipitation Vent Pression Humidité
    00:00 +23°C° 0,2 mm 0 m/s 752 mmHg 96%
    01:00 +23°C° 0 mm 0 m/s 752 mmHg 96%
    02:00 +23°C° 0,7 mm 0 m/s 751 mmHg 96%
    03:00 +23°C° 0,7 mm 0 m/s 751 mmHg 97%
    04:00 +23°C° 0,7 mm 0 m/s 751 mmHg 97%
    05:00 +23°C° 0,5 mm 0 m/s 752 mmHg 96%
    06:00 +24°C° 0,5 mm 0 m/s 752 mmHg 96%
    07:00 +24°C° 0 mm 0 m/s 753 mmHg 95%
    08:00 +25°C° 1,1 mm 0 m/s 752 mmHg 94%
    09:00 +25°C° 1,1 mm 0 m/s 752 mmHg 93%
    10:00 +26°C° 1,1 mm 0 m/s 752 mmHg 93%
    11:00 +28°C° 1,9 mm 1 m/s 752 mmHg 90%
    12:00 +29°C° 1,9 mm 1 m/s 751 mmHg 88%
    13:00 +30°C° 1,9 mm 1 m/s 750 mmHg 85%
    14:00 +29°C° 1,2 mm 1 m/s 750 mmHg 88%
    15:00 +29°C° 1,2 mm 1 m/s 750 mmHg 90%
    16:00 +28°C° 1,2 mm 1 m/s 750 mmHg 93%
    17:00 +27°C° 0,3 mm 1 m/s 750 mmHg 94%
    18:00 +26°C° 0,3 mm 1 m/s 750 mmHg 96%
    19:00 +26°C° 0,3 mm 1 m/s 751 mmHg 97%
    20:00 +25°C° 0 mm 1 m/s 751 mmHg 98%
    21:00 +25°C° 0 mm 1 m/s 752 mmHg 98%
    22:00 +23°C° 0 mm 0 m/s 752 mmHg 98%
    23:00 +23°C° 0 mm 0 m/s 752 mmHg 98%

    Demain, 26 Mai, Samedi

    Heure Température Précipitation Vent Pression Humidité
    00:00 +23°C° 0 mm 0 m/s 751 mmHg 98%
    01:00 +23°C° 0 mm 0 m/s 751 mmHg 98%
    02:00 +22°C° 0,1 mm 0 m/s 751 mmHg 98%
    03:00 +22°C° 0,1 mm 0 m/s 751 mmHg 98%
    04:00 +22°C° 0,1 mm 0 m/s 751 mmHg 98%
    05:00 +23°C° 0,1 mm 0 m/s 751 mmHg 98%
    06:00 +23°C° 0,1 mm 0 m/s 752 mmHg 97%
    07:00 +24°C° 0,1 mm 0 m/s 752 mmHg 96%
    08:00 +25°C° 0,4 mm 0 m/s 752 mmHg 92%
    09:00 +28°C° 0,4 mm 1 m/s 752 mmHg 89%
    10:00 +29°C° 0,4 mm 1 m/s 752 mmHg 86%
    11:00 +29°C° 1,1 mm 1 m/s 751 mmHg 86%
    12:00 +30°C° 1,1 mm 1 m/s 750 mmHg 85%
    13:00 +30°C° 1,1 mm 1 m/s 750 mmHg 85%
    14:00 +30°C° 0,4 mm 1 m/s 749 mmHg 82%
    15:00 +30°C° 0,4 mm 1 m/s 749 mmHg 79%
    16:00 +31°C° 0,4 mm 1 m/s 748 mmHg 76%
    17:00 +27°C° 1,3 mm 0 m/s 748 mmHg 82%
    18:00 +26°C° 1,3 mm 0 m/s 749 mmHg 88%
    19:00 +25°C° 1,3 mm 0 m/s 750 mmHg 94%
    20:00 +24°C° 1,9 mm 0 m/s 750 mmHg 95%
    21:00 +24°C° 1,9 mm 0 m/s 751 mmHg 95%
    22:00 +24°C° 1,9 mm 0 m/s 751 mmHg 95%
    23:00 +24°C° 0,7 mm 0 m/s 751 mmHg 95%

    Après-demain, 27 Mai, Dimanche

    Heure Température Précipitation Vent Pression Humidité
    00:00 +24°C° 0,7 mm 0 m/s 751 mmHg 96%
    01:00 +23°C° 0,7 mm 0 m/s 750 mmHg 96%
    02:00 +23°C° 2,1 mm 0 m/s 750 mmHg 96%
    03:00 +23°C° 2,1 mm 0 m/s 750 mmHg 96%
    04:00 +25°C° 2,1 mm 1 m/s 750 mmHg 97%
    05:00 +23°C° 1,9 mm 0 m/s 751 mmHg 97%
    06:00 +24°C° 1,9 mm 0 m/s 751 mmHg 96%
    07:00 +24°C° 1,9 mm 0 m/s 752 mmHg 96%
    08:00 +26°C° 1,2 mm 1 m/s 752 mmHg 95%
    09:00 +27°C° 1,2 mm 1 m/s 752 mmHg 94%
    10:00 +28°C° 1,2 mm 1 m/s 753 mmHg 93%
    11:00 +28°C° 0,9 mm 1 m/s 752 mmHg 91%
    12:00 +29°C° 0,9 mm 1 m/s 751 mmHg 90%
    13:00 +29°C° 0,9 mm 1 m/s 751 mmHg 89%
    14:00 +29°C° 0,8 mm 1 m/s 750 mmHg 89%
    15:00 +29°C° 0,8 mm 1 m/s 750 mmHg 89%
    16:00 +29°C° 0,8 mm 1 m/s 749 mmHg 89%
    17:00 +28°C° 0,2 mm 1 m/s 749 mmHg 92%
    18:00 +27°C° 0,2 mm 1 m/s 750 mmHg 94%
    19:00 +26°C° 0,2 mm 1 m/s 751 mmHg 97%
    20:00 +26°C° 0,2 mm 1 m/s 751 mmHg 98%
    21:00 +25°C° 0,2 mm 1 m/s 752 mmHg 98%
    22:00 +25°C° 0,2 mm 1 m/s 752 mmHg 98%
    23:00 +25°C° 0,3 mm 1 m/s 752 mmHg 98%

    28 Mai, Lundi

    Heure Température Précipitation Vent Pression Humidité
    00:00 +25°C° 0,3 mm 1 m/s 751 mmHg 98%
    01:00 +25°C° 0,3 mm 1 m/s 751 mmHg 98%
    02:00 +25°C° 0,3 mm 1 m/s 751 mmHg 98%
    03:00 +23°C° 0,3 mm 0 m/s 751 mmHg 98%
    04:00 +23°C° 0,3 mm 0 m/s 751 mmHg 98%
    05:00 +23°C° 0,8 mm 0 m/s 751 mmHg 98%
    06:00 +23°C° 0,8 mm 0 m/s 752 mmHg 97%
    07:00 +23°C° 0,8 mm 0 m/s 752 mmHg 97%
    08:00 +23°C° 1,3 mm 0 m/s 752 mmHg 97%
    09:00 +23°C° 1,3 mm 0 m/s 752 mmHg 97%
    10:00 +24°C° 1,3 mm 0 m/s 753 mmHg 97%
    11:00 +25°C° 0,4 mm 0 m/s 752 mmHg 90%
    12:00 +27°C° 0,4 mm 0 m/s 751 mmHg 83%
    13:00 +30°C° 0,4 mm 1 m/s 751 mmHg 76%
    14:00 +30°C° 0,5 mm 1 m/s 750 mmHg 78%
    15:00 +30°C° 0,5 mm 1 m/s 750 mmHg 80%
    16:00 +30°C° 0,5 mm 1 m/s 749 mmHg 82%
    17:00 +28°C° 1 mm 1 m/s 750 mmHg 87%
    18:00 +27°C° 1 mm 1 m/s 750 mmHg 92%
    19:00 +26°C° 1 mm 1 m/s 751 mmHg 97%
    20:00 +25°C° 0,4 mm 1 m/s 751 mmHg 97%
    21:00 +23°C° 0,4 mm 0 m/s 752 mmHg 98%
    22:00 +23°C° 0,4 mm 0 m/s 752 mmHg 98%
    23:00 +23°C° 0,1 mm 0 m/s 752 mmHg 98%

    29 Mai, Mardi

    Heure Température Précipitation Vent Pression Humidité
    00:00 +22°C° 0,1 mm 0 m/s 752 mmHg 98%
    01:00 +22°C° 0,1 mm 0 m/s 751 mmHg 98%
    02:00 +22°C° 0 mm 0 m/s 751 mmHg 99%
    03:00 +22°C° 0 mm 0 m/s 751 mmHg 99%
    04:00 +22°C° 0 mm 0 m/s 751 mmHg 99%
    05:00 +22°C° 0 mm 0 m/s 751 mmHg 98%
    06:00 +23°C° 0 mm 0 m/s 752 mmHg 97%
    07:00 +23°C° 0 mm 0 m/s 752 mmHg 97%
    08:00 +25°C° 0,2 mm 0 m/s 753 mmHg 91%
    09:00 +26°C° 0,2 mm 0 m/s 753 mmHg 85%
    10:00 +27°C° 0,2 mm 0 m/s 753 mmHg 79%
    11:00 +28°C° 0,7 mm 0 m/s 752 mmHg 78%
    12:00 +29°C° 0,7 mm 0 m/s 751 mmHg 76%
    13:00 +29°C° 0,7 mm 0 m/s 750 mmHg 75%
    14:00 +29°C° 0,4 mm 0 m/s 750 mmHg 76%
    15:00 +31°C° 0,4 mm 1 m/s 749 mmHg 77%
    16:00 +30°C° 0,4 mm 1 m/s 749 mmHg 78%
    17:00 +29°C° 0,2 mm 1 m/s 749 mmHg 85%
    18:00 +27°C° 0,2 mm 1 m/s 750 mmHg 91%
    19:00 +26°C° 0,2 mm 1 m/s 750 mmHg 97%
    20:00 +26°C° 0,4 mm 1 m/s 751 mmHg 97%
    21:00 +25°C° 0,4 mm 1 m/s 751 mmHg 98%
    22:00 +25°C° 0,4 mm 1 m/s 752 mmHg 98%
    23:00 +25°C° 0,5 mm 1 m/s 752 mmHg 98%

    30 Mai, Mercredi

    Heure Température Précipitation Vent Pression Humidité
    00:00 +25°C° 0,5 mm 1 m/s 751 mmHg 98%
    01:00 +25°C° 0,5 mm 1 m/s 751 mmHg 98%
    02:00 +25°C° 0,5 mm 1 m/s 751 mmHg 98%
    03:00 +25°C° 0,5 mm 1 m/s 751 mmHg 98%
    04:00 +23°C° 0,5 mm 0 m/s 750 mmHg 98%
    05:00 +23°C° 0,2 mm 0 m/s 751 mmHg 97%
    06:00 +23°C° 0,2 mm 0 m/s 752 mmHg 96%
    07:00 +24°C° 0,2 mm 0 m/s 752 mmHg 95%
    08:00 +25°C° 0,3 mm 0 m/s 752 mmHg 92%
    09:00 +26°C° 0,3 mm 0 m/s 752 mmHg 89%
    10:00 +29°C° 0,3 mm 1 m/s 752 mmHg 86%
    11:00 +29°C° 1,6 mm 1 m/s 751 mmHg 86%
    12:00 +29°C° 1,6 mm 1 m/s 751 mmHg 87%
    13:00 +30°C° 1,6 mm 1 m/s 750 mmHg 87%
    14:00 +29°C° 1,5 mm 1 m/s 749 mmHg 88%
    15:00 +27°C° 1,5 mm 0 m/s 749 mmHg 89%
    16:00 +27°C° 1,5 mm 0 m/s 748 mmHg 90%
    17:00 +26°C° 0,2 mm 0 m/s 749 mmHg 92%
    18:00 +25°C° 0,2 mm 0 m/s 749 mmHg 95%
    19:00 +24°C° 0,2 mm 0 m/s 750 mmHg 97%
    20:00 +24°C° 0,3 mm 0 m/s 750 mmHg 97%
    21:00 +23°C° 0,3 mm 0 m/s 751 mmHg 97%
    22:00 +23°C° 0,3 mm 0 m/s 751 mmHg 98%
    23:00 +23°C° 1,1 mm 0 m/s 751 mmHg 98%
    Voir plus